Tracking 31027 objects as of 19-Jul-2025
HD Live streaming from Space Station
objects crossing your sky now

STARLINK-3297

Track STARLINK-3297 now!
10-day predictions
STARLINK-3297 is classified as:


NORAD ID: 50159
Int'l Code: 2021-125D
Perigee: 546.2 km
Apogee: 547.6 km
Inclination: 53.2 °
Period: 95.4 minutes
Semi major axis: 6917 km
RCS: Unknown
Launch date: December 18, 2021
Source: United States (US)
Launch site: AIR FORCE WESTERN TEST RANGE (AFWTR)
Your satellite tracking list
RESURS O1 DEB
Track 1 satellite(s)




NASA's NSSDC Master Catalog

Two Line Element Set (TLE):
1 50159U 21125D   25199.47051663 -.00000675  00000-0 -24346-4 0  9992
2 50159  53.2153 230.5798 0001013  84.7739 275.3369 15.08832408201094
Source of the keplerian elements: AFSPC